Regional Weather Roundup
Issued by NWS New Orleans/Baton Rouge, LA

Home | Current Version | Previous Version | Graphics & Text | Print | Product List | Glossary On
Versions: 1 2 3 4 5 6 7 8 9 10 11 12 13 14 15 16 17 18 19 20 21 22 23 24 25 26 27 28 29 30 31 32 33 34 35 36 37 38 39 40 41 42 43 44 45 46 47 48 49 50
388
ASUS44 KLIX 231410
RWRLIX
NEW ORLEANS REGIONAL WEATHER ROUNDUP
NATIONAL WEATHER SERVICE NEW ORLEANS LA
900 AM CDT TUE SEP 23 2014

NOTE: "FAIR" INDICATES FEW OR NO CLOUDS BELOW 12,000 FEET WITH NO
      SIGNIFICANT WEATHER AND/OR OBSTRUCTIONS TO VISIBILITY.
      SKY/WX - SKY CONDITION AND SIGNIFICANT WEATHER.
      TMP - AIR TEMPERATURE.     DP    - DEWPOINT TEMPERATURE.
      RH  - RELATIVE HUMIDITY.   PRES  - PRESSURE.
      HI  - HEAT INDEX.          WCI   - WIND CHILL INDEX.

*  THESE STATIONS ARE NOT NWS OR FAA STATIONS AND ARE NOT UNDER
   NWS QUALITY CONTROL.

LAZ038-040-048-061>063-065>067-069-231500-
SOUTHEAST LOUISIANA

CITY           SKY/WX    TMP DP  RH WIND       PRES   REMARKS
N.O. AUDUBON     N/A     73  58  60 MISG        N/A
N.O. INTL ARPT MOSUNNY   73  57  57 E14       30.10R
N.O. LAKEFRONT SUNNY     72  58  61 E17       30.10R
N.O. DOWNTOWN*   N/A     70  54  56 NE10      30.10S
SLIDELL        SUNNY     69  55  60 NE8       30.11R
BATON ROUGE    SUNNY     68  55  63 NE8       30.13R
BOOTHVILLE     SUNNY     79  66  64 NE13G21   30.07R
BELLE CHASSE   MOSUNNY   73  60  63 NE13      30.09R
BOGALUSA*        N/A     66  55  66 NE7       30.14R
GALLIANO*      NOT AVBL
NEW ROADS*       N/A     68  53  58 E8        30.13S
GONZALES*        N/A     67  57  71 NE8       30.11R
HAMMOND*       SUNNY     70  54  56 NE7       30.14R
HOUMA*         SUNNY     72  45  37 NE9       30.08R
PORT FOURCHON* SUNNY     79  66  65 NE14G22   30.09R

$$

MSZ070-080>082-231500-
SOUTHERN MISSISSIPPI

CITY           SKY/WX    TMP DP  RH WIND       PRES   REMARKS
MCCOMB         SUNNY     66  52  60 E8        30.14R
GULFPORT       SUNNY     69  54  58 NE9       30.10R
BILOXI         SUNNY     69  54  60 NE12      30.11R
PASCAGOULA     SUNNY     66  57  72 NE8       30.10S

$$

COASTAL OBSERVATIONS
LAKE AND NEARSHORE STATIONS

STATION/POSITION TIME  TEMP    WIND        PRES    WAVE
                       AIR SEA DIR/SP/G            HT/PER
                 (UTC) (F)     (DEG/KT/KT) (MB)    (FT/S)
PASCAGOULA       1400   68      30/ 10/ 12 1018.5
WAVELAND YACHT   1400   67      50/ 13/ 15 1018.6
GRAND ISLE       1400   77 80   60/ 16/ 20 1018.4
SOUTHWEST PASS   1400   83 88   60/ 18/ 21 1017.8
NEW CANAL        1400   70 78   70/ 19/ 22 1019.1
SHELL BEACH      1400   73 74   40/ 17/ 19 1018.5

OFFSHORE STATIONS

STATION/POSITION TIME  TEMP    WIND        PRES    WAVE
                       AIR SEA DIR/SP/G            HT/PER
                 (UTC) (F)     (DEG/KT/KT) (MB)    (FT/S)
64 S DAUPHIN ISL 1321   78 83   60/ 17/ 21 1017.8    5/ 6

$$




USA.gov is the U.S. government's official web portal to all federal, state and local government web resources and services.